User: anonymous   Login
Location: ??????
(55.6500°N, 37.8000°E)
Time: 17:36:42
(UTC+00:00)
Language:

CZ-4 R/B - Orbit

View from above orbital plane
View from above orbital plane
View from above satellite
View from above satellite

Ground track
Ground track

The orbit data is extracted from the following two-line orbital elements,

1 28059U 03049C   24176.89449681  .00000562  00000-0  14369-3 0  9998
2 28059  98.6109 139.4814 0048601 334.0146  25.8610 14.53810363 96066
Epoch (UTC): 24 June 2024 21:28:04
Eccentricity: 0.0048601
inclination: 98.6109°
perigee height: 679 km
apogee height: 747 km
right ascension of ascending node: 139.4814°
argument of perigee: 334.0146°
revolutions per day: 14.53810363
mean anomaly at epoch: 25.8610°
orbit number at epoch: 9606

The dashed part of the orbit path shows where the satellite is in the earth's shadow,  

DLR